This is the latest recevied weather packets stored in our database for station/object E23JWE-1. If no packets are shown the sender has not sent any weather packets the latest 10 day(s).
| Time | Temp. | Humidity | Pressure | Rain* | Wind** | Luminosity | Snow |
|---|---|---|---|---|---|---|---|
| 1777612154 | 33.33° C | 81% | 1010 hPa | - | - | 28 W/m² | - |
| 1777610329 | 33.33° C | 82% | 1010 hPa | - | - | 26 W/m² | - |
| 1777608504 | 33.33° C | 81% | 1010 hPa | - | - | 26 W/m² | - |
| 1777606678 | 32.78° C | 85% | 1011 hPa | - | - | 29 W/m² | - |
| 1777604852 | 32.78° C | 83% | 1011 hPa | - | - | 22 W/m² | - |
| 1777603026 | 32.78° C | 84% | 1011 hPa | - | - | 28 W/m² | - |
| 1777601201 | 32.22° C | 86% | 1010 hPa | - | - | 24 W/m² | - |
| 1777599375 | 32.22° C | 89% | 1010 hPa | - | - | 26 W/m² | - |
| 1777597550 | 32.22° C | 89% | 1010 hPa | - | - | 21 W/m² | - |
| 1777595724 | 32.22° C | 88% | 1009 hPa | - | - | 15 W/m² | - |
| 1777593897 | 32.22° C | 90% | 1009 hPa | - | - | 9 W/m² | - |
| 1777592072 | 32.22° C | 87% | 1008 hPa | - | - | 3 W/m² | - |
| 1777590247 | 32.22° C | 85% | 1008 hPa | - | - | 0 W/m² | - |
| 1777588421 | 32.22° C | 86% | 1007 hPa | - | - | 0 W/m² | - |
| 1777586595 | 32.22° C | 86% | 1007 hPa | - | - | 0 W/m² | - |
| 1777584770 | 32.22° C | 86% | 1007 hPa | - | - | 0 W/m² | - |
| 1777582944 | 32.22° C | 87% | 1008 hPa | - | - | 0 W/m² | - |
| 1777581119 | 32.22° C | 87% | 1008 hPa | - | - | 0 W/m² | - |
| 1777579293 | 32.22° C | 87% | 1008 hPa | - | - | 0 W/m² | - |
| 1777577467 | 32.22° C | 87% | 1008 hPa | - | - | 0 W/m² | - |
| 1777575642 | 32.78° C | 84% | 1009 hPa | - | - | 0 W/m² | - |
| 1777573816 | 32.22° C | 83% | 1009 hPa | - | - | 0 W/m² | - |
| 1777571991 | 32.22° C | 82% | 1010 hPa | - | - | 0 W/m² | - |
| 1777570165 | 32.22° C | 84% | 1010 hPa | - | - | 0 W/m² | - |
| 1777568339 | 32.78° C | 89% | 1010 hPa | - | - | 0 W/m² | - |
* Rain since midnight (hover to see other rain measurements)
** Current wind speed in m/s (hover to see current wind gust speed)